Probability
14 14 14 14 14 14 12 9 8 8 7 5 4 3 3 3 4 4 6 7 8 8 7 5 5 6 7 7 7 6 6 6 6 5 5 5 5 6 7 6 5 3 1
15 15 16 16 16 15 13 10 9 9 8 7 5 3 3 4 4 5 5 6 7 7 6 5 6 6 6 6 6 6 6 6 6 5 5 5 5 6 6 5 3 2 1
14 16 17 18 17 15 14 12 10 10 9 7 6 5 5 5 6 6 6 6 6 5 5 6 8 8 7 6 7 8 8 7 7 6 6 6 5 4 4 3 1 0 0
13 14 17 18 17 16 14 13 13 12 10 7 7 7 7 6 6 7 7 8 7 5 5 7 9 9 8 7 8 9 9 8 8 8 6 5 3 2 2 2 1 1 0
12 12 14 16 17 16 14 14 15 14 11 8 7 9 9 8 7 7 8 8 7 7 7 7 8 8 8 8 8 8 9 9 8 7 6 4 2 1 0 1 2 2 1
12 12 12 13 15 14 13 14 15 15 13 10 8 9 11 11 9 8 7 7 8 9 8 6 7 8 9 10 10 10 10 10 8 7 6 5 3 2 1 0 1 2 2
13 14 13 13 14 13 12 13 15 14 12 10 9 9 11 11 11 9 7 7 9 9 8 8 8 8 9 10 11 11 11 11 9 8 7 6 4 3 2 1 0 1 2
14 14 14 12 11 12 12 13 14 13 11 9 7 7 10 11 10 7 6 8 10 10 10 10 11 10 10 10 9 9 9 9 8 7 7 6 5 4 3 2 1 1 1
14 15 15 12 10 10 12 12 13 13 12 9 7 7 9 11 9 6 5 6 9 10 10 10 11 12 11 11 9 7 8 8 8 7 7 6 5 3 3 3 3 2 1
15 17 17 15 13 12 12 11 12 13 13 11 9 8 8 9 9 7 4 4 8 11 11 9 10 11 12 12 11 8 8 8 8 8 7 5 4 3 2 3 3 3 2
17 18 18 17 16 16 15 14 13 13 13 11 9 7 7 9 9 7 5 6 8 11 11 10 10 11 13 13 13 10 8 8 7 6 5 5 4 2 1 2 2 2 2
19 19 19 18 19 20 21 20 19 16 13 12 10 8 9 10 8 7 7 8 10 12 11 10 11 12 13 14 14 12 9 7 4 2 2 2 3 2 0 1 1 1 1
22 21 21 21 21 21 23 24 24 22 17 15 13 13 13 11 9 8 8 9 11 12 10 9 10 11 12 14 15 13 10 6 2 0 0 0 1 0 0 0 0 0 0
21 22 24 23 21 20 22 24 25 24 21 17 15 16 15 12 9 8 9 10 10 10 10 9 8 7 10 14 14 12 11 6 1 0 0 0 0 0 0 0 0 0 0
19 21 23 22 19 18 20 23 24 24 23 20 18 17 16 13 10 10 13 15 11 8 8 10 9 8 9 11 10 11 12 8 3 0 0 0 0 0 0 0 0 0 0
20 20 20 20 18 17 19 22 23 24 24 22 20 19 18 16 14 14 17 20 17 11 8 10 12 12 11 10 9 12 15 12 6 2 0 0 0 0 0 0 0 0 0
23 22 20 19 17 18 20 21 22 22 22 20 18 17 17 17 16 15 18 22 21 16 11 11 15 17 17 14 13 15 16 13 8 4 1 0 0 0 0 0 0 0 0
24 23 22 20 18 17 19 20 21 20 18 16 15 15 15 15 15 15 16 19 19 17 14 14 16 19 20 17 15 16 16 12 8 5 1 0 0 0 0 0 0 0 0
23 23 23 21 17 16 17 18 19 18 18 17 15 15 14 13 15 15 15 15 16 14 14 15 15 16 17 16 15 16 15 11 7 4 2 1 0 0 0 0 0 0 0
21 22 22 20 18 16 14 14 15 14 14 16 16 16 14 13 14 15 14 14 14 13 12 14 14 14 14 15 16 16 14 11 7 5 4 3 2 1 0 0 0 0 0
22 23 23 22 19 16 13 11 11 9 9 12 14 14 12 11 11 12 12 13 13 12 11 12 12 13 14 16 16 16 14 12 10 7 7 6 4 3 1 1 0 0 0
26 25 25 23 20 16 12 9 8 8 8 9 10 9 8 7 8 10 10 10 10 9 9 10 11 12 15 18 18 16 14 13 11 11 10 8 7 5 4 3 2 0 0
27 27 26 24 20 15 10 7 6 7 8 8 9 8 6 5 7 9 9 8 7 6 6 8 10 11 14 18 19 16 14 13 11 12 11 8 7 7 5 5 3 1 0
28 27 27 25 21 14 8 5 6 7 8 8 10 11 10 8 8 9 10 9 8 7 6 6 8 9 10 13 16 17 16 13 10 9 8 6 5 5 5 4 3 2 1
28 27 26 27 25 18 8 4 6 9 10 11 12 13 13 11 8 8 10 13 13 13 10 7 6 5 4 5 9 14 16 13 8 6 5 4 4 4 4 4 4 3 1
28 26 26 28 28 22 11 4 6 10 13 14 14 13 11 9 8 8 10 14 16 15 13 10 7 3 1 1 4 9 14 13 7 4 4 4 4 4 4 5 5 4 2
Wind_Speed
1 1 0 0 0 1 1 1 1 1 1 1 1 1 1 1 3 4 4 9 10 9 8 7 7 6 6 7 7 8 10 11 10 10 9 9 9 9 9 8 8 7 7
1 0 0 0 0 0 0 0 1 1 1 0 1 1 2 2 2 4 5 6 9 9 9 8 7 7 7 6 6 6 9 10 10 9 9 9 9 9 9 8 8 7 7
0 0 1 1 0 0 1 1 0 1 1 1 1 1 1 2 3 3 5 4 5 8 9 9 8 8 7 8 7 7 8 10 10 10 10 10 9 8 8 8 8 7 7
1 0 0 0 0 0 0 1 0 1 1 1 1 1 1 2 2 3 3 4 4 5 7 9 9 8 8 8 9 8 8 9 10 9 9 9 9 9 8 8 8 8 7
1 0 1 1 1 0 0 1 1 0 0 0 1 1 2 2 3 3 3 4 4 5 5 7 9 9 9 9 9 10 9 9 9 9 8 9 10 9 9 9 8 8 7
1 1 0 1 1 0 0 0 0 0 0 1 1 1 2 2 2 2 3 3 3 4 5 6 5 6 9 8 8 9 10 10 9 9 9 9 10 10 10 9 9 9 8
1 0 1 0 1 1 0 1 1 1 1 1 1 0 1 2 3 3 2 3 3 3 4 5 5 4 5 8 8 8 9 10 10 10 9 9 9 11 10 10 9 9 9
1 0 0 1 1 1 1 1 1 1 1 1 1 1 1 1 1 3 3 3 3 3 4 5 5 5 4 4 5 9 8 8 8 9 9 9 8 9 10 10 10 9 8
0 1 0 1 1 1 1 1 1 1 1 1 1 1 1 1 1 1 2 2 3 2 3 3 5 5 5 4 5 8 9 9 9 8 8 8 8 8 8 9 10 9 9
0 1 1 1 1 1 1 1 0 1 1 1 1 1 1 1 1 1 1 1 2 3 2 3 4 5 5 4 5 8 10 9 9 9 9 9 8 9 9 8 9 10 10
0 1 1 1 1 1 1 1 1 1 1 1 1 1 1 0 1 1 1 2 2 2 2 2 2 4 5 6 5 7 10 9 8 9 9 9 9 9 9 9 8 9 10
1 1 1 1 1 1 1 1 1 2 2 2 2 2 1 1 1 1 1 2 2 2 2 2 2 3 4 5 7 10 11 10 9 8 8 8 8 9 9 9 9 9 9
1 1 1 1 1 1 1 1 2 2 2 2 3 2 2 1 1 1 0 1 1 1 1 2 2 2 3 4 5 11 10 10 9 9 8 8 8 8 8 9 9 9 9
2 2 1 1 2 2 2 1 2 2 1 2 3 2 2 2 1 1 1 0 1 1 1 1 1 1 2 4 6 10 7 11 10 9 8 8 8 8 7 7 8 8 8
2 2 2 2 2 2 2 1 2 1 1 2 3 3 3 2 2 2 1 1 1 1 1 1 1 2 2 3 7 5 5 10 11 10 9 9 8 8 8 8 7 7 7
2 2 2 2 3 2 2 2 2 1 1 2 1 1 2 2 2 2 1 1 1 1 2 1 2 2 3 4 6 4 5 10 12 12 11 10 9 9 9 8 8 8 8
2 2 2 2 2 2 2 2 2 1 2 2 2 2 2 2 2 2 1 1 1 1 2 2 1 1 2 3 3 4 4 6 7 12 12 11 11 10 10 9 9 9 8
2 2 2 2 3 2 2 2 3 2 2 2 2 2 2 2 2 2 2 2 1 1 1 2 2 1 2 3 4 4 4 5 6 11 13 13 12 12 11 11 10 10 10
2 2 2 2 3 2 2 2 2 3 2 2 2 3 3 2 2 2 2 2 1 1 1 1 2 1 1 2 2 3 4 2 5 7 11 12 12 12 12 12 12 11 11
2 2 2 2 3 2 2 2 2 3 3 3 3 2 2 2 3 3 3 2 2 2 2 2 2 2 1 2 2 2 2 2 3 3 5 7 10 13 12 12 12 12 11
3 2 3 3 3 2 2 2 3 3 3 4 3 3 3 3 3 3 3 2 2 2 2 2 2 2 2 1 2 2 3 3 3 2 2 4 5 5 7 10 11 12 12
3 3 3 3 4 3 2 3 3 4 4 4 4 3 4 4 3 5 5 4 4 4 3 3 3 3 3 2 2 2 2 2 2 2 3 4 4 5 5 6 11 14 14
3 3 3 3 3 2 3 2 4 5 5 4 4 4 5 4 3 3 5 6 6 7 6 4 4 4 4 3 3 4 3 4 4 3 3 4 3 4 4 5 11 14 14
3 3 4 4 3 3 2 3 5 5 5 5 5 5 5 4 4 3 4 4 5 5 7 6 6 6 6 3 4 5 5 5 4 3 3 3 3 3 3 3 8 12 13
4 4 4 3 3 3 3 3 4 4 4 5 5 5 5 3 4 4 4 5 5 5 7 8 9 8 8 8 5 3 4 3 4 3 3 3 3 2 3 3 5 9 11
4 4 4 3 4 3 3 4 4 3 4 4 4 4 4 4 4 4 4 5 6 5 5 5 6 8 8 8 9 7 5 4 4 3 3 3 3 2 3 2 2 4 5
Wind_Direction
63 49 12 4 297 158 168 193 162 138 206 200 180 169 166 132 123 128 136 157 158 164 170 174 179 183 187 188 190 197 196 190 187 189 187 186 186 187 187 185 182 179 180
94 61 22 302 295 124 85 143 213 171 198 204 176 193 170 159 132 142 147 166 169 171 177 182 187 190 190 187 191 197 193 188 187 187 188 190 190 191 190 189 184 181 181
82 188 198 212 234 170 161 178 259 206 205 198 178 192 175 165 151 151 155 163 173 179 183 187 190 195 196 197 197 190 183 187 188 187 189 190 193 191 189 186 184 182 183
11 323 253 188 100 158 167 166 208 233 199 160 184 211 185 170 166 163 163 167 172 176 187 191 193 197 200 201 200 195 189 189 189 186 187 190 192 192 186 187 188 188 190
39 333 32 356 270 260 331 280 105 301 229 187 206 206 181 172 174 177 170 177 179 168 169 186 193 198 203 205 204 201 196 191 187 187 189 192 193 192 190 189 190 190 192
39 11 37 327 332 349 355 354 58 265 250 252 246 197 183 184 173 171 182 180 184 171 166 169 186 198 203 205 205 205 200 196 191 192 193 193 192 189 187 191 193 191 193
36 12 331 322 299 291 311 325 350 286 260 213 228 223 192 196 169 172 181 171 185 177 162 167 181 182 189 198 195 193 196 194 194 194 193 192 192 191 189 192 194 196 197
359 308 318 308 306 323 305 285 272 260 272 246 229 227 165 242 233 185 170 182 188 183 177 180 176 175 174 171 181 187 188 188 190 193 192 190 189 188 189 192 196 198 197
53 338 354 325 313 296 257 244 223 233 256 273 241 172 162 205 241 185 192 191 184 183 186 174 176 169 182 168 168 185 184 183 189 193 191 188 186 185 190 198 200 201 201
259 275 273 267 290 303 301 286 192 255 245 274 264 246 216 166 181 193 216 207 206 192 198 201 176 170 175 163 162 165 178 182 186 190 190 188 188 192 195 201 206 208 208
252 281 276 277 279 290 294 293 313 286 267 271 286 280 279 236 221 189 202 204 214 206 195 206 174 168 169 162 171 165 170 178 184 188 189 190 192 196 199 203 210 213 214
269 275 267 281 281 269 273 260 257 247 252 260 273 277 275 285 282 250 215 203 197 205 192 200 191 177 178 167 171 164 168 175 181 186 188 190 194 199 204 207 213 219 219
335 354 343 318 301 282 265 255 247 248 246 251 253 260 278 271 259 268 215 231 185 186 205 221 209 190 175 156 161 163 172 176 180 183 188 192 195 200 207 211 215 219 223
343 5 352 327 318 312 303 295 277 260 255 255 257 252 266 271 277 267 226 214 254 231 202 214 192 195 169 159 165 172 178 180 181 185 190 193 197 201 208 215 216 219 221
346 359 352 345 328 314 319 307 288 278 276 260 258 247 253 259 259 277 275 222 226 255 239 200 196 192 193 141 162 186 176 183 185 189 193 197 199 204 209 213 211 211 209
348 337 343 344 339 320 301 287 286 287 276 281 263 262 274 280 269 265 252 241 236 244 269 226 217 194 199 188 181 196 187 184 192 194 197 201 204 208 209 211 209 203 205
335 328 339 336 326 319 321 313 301 311 294 294 294 261 254 279 292 291 289 262 250 233 251 273 248 219 199 197 181 212 192 186 192 198 201 203 206 209 209 206 203 203 204
324 319 328 322 311 320 324 321 311 311 297 281 276 268 259 255 265 284 289 280 277 254 233 263 265 248 231 209 183 212 210 200 194 198 202 205 208 210 208 204 201 201 202
308 303 294 285 293 299 303 303 302 301 293 278 267 258 252 242 243 259 262 270 263 260 225 239 262 249 231 221 202 223 229 223 217 197 199 207 210 211 209 206 204 202 203
289 293 291 280 274 277 286 293 294 292 293 287 273 260 252 238 243 251 245 246 253 260 247 237 250 255 233 232 209 216 236 230 237 218 205 206 210 212 210 208 206 204 207
301 300 295 288 282 271 291 317 302 292 291 289 284 268 252 235 235 243 252 251 255 256 253 247 245 250 236 213 218 226 235 238 228 213 209 210 200 205 207 214 214 211 209
300 292 291 297 294 299 326 326 311 296 286 281 280 277 262 232 225 229 243 257 253 247 250 247 246 243 243 228 220 231 239 246 244 211 206 230 209 205 204 205 209 209 211
302 293 288 287 287 291 297 296 297 290 278 273 273 269 272 269 242 240 241 246 248 246 244 250 257 254 246 232 225 234 237 238 245 229 214 237 216 220 216 210 197 201 206
288 284 281 284 281 279 279 273 282 273 279 273 270 265 263 262 262 263 263 255 251 251 246 241 249 257 255 249 233 230 235 245 250 236 213 237 227 227 231 213 204 202 203
283 280 281 280 281 276 251 262 273 274 277 280 273 274 272 259 259 253 260 266 264 260 252 248 246 251 253 252 247 243 242 242 251 238 212 229 238 241 234 220 212 206 205
283 285 283 277 275 271 239 245 258 273 281 280 271 263 255 251 245 242 250 263 265 266 273 266 255 254 251 246 236 228 233 240 253 254 218 213 235 231 248 226 199 192 198